Погода в Чердыни

Россия / Пермский край     60°24′10″N   56°28′46″E
темп.,
°C
ветер,
м/с
пор.,
м/с
влажн.,
%
обл.,
%
осадки,
мм/ч
давл.,
гПа
погр.,
м
11 мая, вт
вт1123:00+14зсз2677100 0.1 1023190
02:00+13сз3690100 0.0 1024384
05:00+10сз3595100 2.7 1026379
08:00+9ссз369251 1.7 1027397
11:00+13ссз347278 1.7 1028850
14:00+16сз344552 0.0 10281227
17:00+17сз343061 0.0 10281315
20:00+14сз234713 0.0 102956
12 мая, ср
ср1223:00+11сз1155100 0.0 103010
02:00+11зсз1156100 0.0 103013
05:00+10зюз116287 0.0 103018
08:00+13з2560100 0.0 1030216
11:00+18зюз354999 0.0 1029932
14:00+21з4642100 0.0 10281544
17:00+22з4741100 0.0 10271720
20:00+19зюз2758100 0.0 1026156
13 мая, чт
чт1323:00+14зсз2375100 0.0 102746
02:00+13зсз2479100 0.0 102766
05:00+11зсз228418 0.0 102825
08:00+16зсз126729 0.0 1028237
11:00+21зсз234825 0.0 1028968
14:00+24зсз23385 0.0 10271647
17:00+25з23360 0.0 10261894
20:00+22юз22510 0.0 102519
14 мая, пт
пт1423:00+17ююз2265100 0.0 102529
02:00+15ююз22736 0.0 102441
05:00+15ююз1269100 0.0 102425
08:00+19ююз256044 0.0 1023265
11:00+24зюз354299 0.0 10221108
14:00+26з473545 0.0 10212182
17:00+24зюз4741100 0.0 10201134
20:00+17юз008191 1.1 102016
15 мая, сб
сб1523:00+16ю2379100 1.2 101967
02:00+16юз257599 0.0 1018109
05:00+14юз258199 0.0 101896
08:00+17юз257195 0.0 1018220
11:00+23зюз35485 0.0 10171189
14:00+26зюз47365 0.0 10162626
17:00+27з48326 0.0 10162909
20:00+23зюз234899 0.1 101564